Flag for Brazil Weather past 2 weeks in Campinas, São Paulo, Brazil

Now
73 °F

Sunny.


Feels Like: 77 °F
Forecast: 54 / 71 °F
Wind: 8 mph from Southeast

Location: Campinas Aeroporto

Current Time: Aug 28, 2014 at 1:18:59 PM

Latest Report: Aug 28, 2014 at 1:00 PM


Visibility: 10 mi

Pressure: 30.07 "Hg

Humidity: 36%

Dew point: 45 °F

Location of CampinasLocation

Historic Weather in Campinas — Graph

°F

Campinas temperature yesterday

Maximum temperature yesterday: 77 °F (at 2:00 PM)
Minimum temperature yesterday: 61 °F (at 6:00 AM)
Average temperature yesterday: 68 °F

Past Weeks' High & Low Weather Summary

 TemperatureHumidityPressure
High90 °F (Aug 25, 3:00 PM)94% (Aug 17, 3:00 AM)30.36 "Hg (Aug 17, 3:00 AM)
Low52 °F (Aug 13, 11:00 PM)13% (Aug 24, 3:00 PM)29.92 "Hg (Aug 25, 3:00 PM)
Average68 °F59%30.15 "Hg
* Reported Aug 13 12:00 Noon — Aug 28 12:00 Noon, Campinas, Weather by CustomWeather, © 2014

Note: Actual official high and low records may vary slightly from our data, if they occured in-between our weather recording intervals... More about our weather records

Advertising

Campinas weather history for previous 24 hours

 ConditionsComfort  
Time TempWeatherWind HumidityBarometerVisibility
12:00 PM
Aug 28
70 °FSunny.12 mph43%30.09 "Hg10 mi
11:00 AM66 °FSunny.13 mph49%30.12 "Hg10 mi
10:00 AM63 °FSunny.16 mph56%30.12 "Hg10 mi
9:00 AM61 °FSunny.18 mph63%30.12 "Hg10 mi
8:00 AM57 °FSunny.16 mph67%30.07 "Hg10 mi
7:00 AM54 °FSunny.16 mph82%30.07 "Hg10 mi
6:00 AM55 °FSunny.15 mph72%30.04 "Hg10 mi
5:00 AM55 °FClear.18 mph72%30.04 "Hg10 mi
4:00 AM55 °FClear.17 mph77%30.01 "Hg10 mi
3:00 AM55 °FClear.15 mph82%30.07 "Hg10 mi
2:00 AM57 °FClear.16 mph82%30.04 "Hg10 mi
1:00 AM59 °FPassing clouds.15 mph77%30.04 "HgN/A
12:00 AM59 °FClear.15 mph77%30.04 "Hg10 mi
11:00 PM
Aug 27
61 °FClear.14 mph72%30.07 "Hg10 mi
10:00 PM63 °FClear.13 mph68%30.07 "Hg10 mi
9:00 PM64 °FClear.14 mph64%30.04 "Hg10 mi
8:00 PM72 °FClear.6 mph27%30.04 "Hg10 mi
7:00 PM73 °FClear.6 mph22%30.04 "Hg10 mi
6:00 PM75 °FClear.7 mph22%30.04 "Hg10 mi
5:00 PM77 °FClear.5 mph22%30.01 "Hg10 mi
4:00 PM77 °FSunny.12 mph24%30.01 "Hg10 mi
3:00 PM77 °FSunny.10 mph24%30.04 "Hg10 mi
2:00 PM77 °FSunny.9 mph21%30.04 "Hg10 mi
1:00 PM75 °FSunny.8 mph29%30.07 "Hg10 mi
Weather by CustomWeather, © 2014

See weather overviewHow to use our weather pages